Hourly Data Report for July 03, 2011

HALIFAX STANFIELD INT'L A
NOVA SCOTIA

44°52'48.060" N
63°30'00.050" W
145.40 m
8202250
71395
YHZ

Download Data

Hourly Data (July 2011)
Hourly Data Report for July 3, 2011
TIME
LST
Temp Definition
°C
Dew Point Definition
°C
Rel Hum Definition
%
Precip. Amount Definition
mm

Wind Dir Definition
10's deg

Wind Spd Definition
km/h
Visibility Definition
km
Stn Press Definition
kPa
Hmdx Definition


Wind Chill Definition


Weather Definition


00:00 15.7 12.6 82   22 15 24.1 99.93     Mostly Cloudy
01:00 15.5 12.3 81   21 13 24.1 99.90     Cloudy
02:00 13.6 11.7 88   18 13 24.1 99.83     Mainly Clear
03:00 12.9 11.6 92   22 9 24.1 99.84     Clear
04:00 12.3 11.4 94   22 7 24.1 99.83     Mainly Clear
05:00 12.4 11.4 94   20 9 24.1 99.83     Mainly Clear
06:00 14.7 13.0 90   19 13 24.1 99.86     Mainly Clear
07:00 17.3 14.0 81   21 19 24.1 99.87     Mainly Clear
08:00 19.1 13.8 71   22 20 24.1 99.88     Clear
09:00 20.3 13.5 65   21 20 24.1 99.84     Clear
10:00 21.6 13.5 60   19 19 24.1 99.84 25   Mainly Clear
11:00 22.0 13.9 60   22 20 24.1 99.85 25   Mainly Clear
12:00 22.6 13.6 57   21 20 24.1 99.82 26   Clear
13:00 23.4 13.4 53   22 26 24.1 99.80 26   Clear
14:00 22.8 14.2 58   20 32 24.1 99.79 26   Mainly Clear
15:00 22.6 14.6 61   20 33 24.1 99.78 26   Mainly Clear
16:00 21.2 14.9 67   21 35 24.1 99.79 25   Mainly Clear
17:00 20.6 15.2 71   21 30 24.1 99.78 25   Mainly Clear
18:00 19.7 13.7 68   21 32 24.1 99.78     Mainly Clear
19:00 17.6 12.7 73   18 22 24.1 99.80     Mainly Clear
20:00 15.9 13.7 87   17 17 24.1 99.80     Mostly Cloudy
21:00 15.4 14.1 92   17 19 9.7 99.85     Fog
22:00 14.7 13.9 95   16 15 0.6 99.82     Fog
23:00 14.9 14.1 95   16 15 0.8 99.78     Fog

Notes on Data Quality.

Legend

  • E = Estimated
  • M = Missing
  • NA = Not Available*
  • [empty] = Indicates an unobserved value
Date modified: